Regional Weather Roundup
Issued by NWS

Home | Current Version | Previous Version | Graphics & Text | Print | Product List | Glossary On
Versions: 1 2 3 4 5 6 7 8 9 10 11 12 13 14 15 16 17 18 19 20 21 22 23 24 25 26 27 28 29 30 31 32 33 34 35 36 37 38 39 40 41 42 43 44 45 46 47 48 49 50
000
ASUS43 KOAX 171902
RWRNE

WEATHER ROUNDUP FOR NEBRASKA
NATIONAL WEATHER SERVICE OMAHA NE
200 PM CDT THU APR 17 2014

NOTES: SATELLITE DATA IS BEING USED TO AUGMENT CLOUD COVER ABOVE
       12000 FEET.
       "FAIR" INDICATES FEW OR NO CLOUDS BELOW 12,000 FEET WITH NO
       SIGNIFICANT WEATHER AND/OR OBSTRUCTIONS TO VISIBILITY.

  * THESE STATIONS DO NOT REPORT WEATHER SUCH AS RAIN...SNOW OR FOG.

NEZ001>004-019>022-054>056-172000-
NEBRASKA PANHANDLE

CITY           SKY/WX    TMP DP  RH WIND       PRES   REMARKS
SCOTTSBLUFF    MOSUNNY   50  36  58 SE14      30.09F
ALLIANCE       CLOUDY    39  32  76 S16       30.13F WCI  30
CHADRON        CLOUDY    45  35  68 S13       30.11F
KIMBALL        MOSUNNY   51  36  54 S12G17    30.07F
SIDNEY         CLOUDY    42  34  73 S18       30.13F
$$

NEZ057>060-069>072-079>082-172000-
SOUTHWEST NEBRASKA

CITY           SKY/WX    TMP DP  RH WIND       PRES   REMARKS
NORTH PLATTE   MOSUNNY   47  27  45 S9G17     30.23F
IMPERIAL       CLOUDY    43  32  65 SE15      30.21F
LEXINGTON      SUNNY     44  30  58 S3        30.26F
MCCOOK           N/A     46  30  53 VRB3      30.26F
OGALLALA       CLOUDY    43  32  65 S12       30.19F
$$

NEZ005>010-023>029-035>040-094-172000-
NORTH CENTRAL NEBRASKA

CITY           SKY/WX    TMP DP  RH WIND       PRES   REMARKS
VALENTINE      CLOUDY    42  23  46 S14G23    30.21F
AINSWORTH      PTSUNNY   43  24  46 SE14      30.23F
BROKEN BOW     MOSUNNY   45  23  42 SE12      30.24F
O`NEILL        MOSUNNY   45  17  32 CALM      30.27F
ORD            SUNNY     47  22  37 SE9       30.26F
$$

NEZ041-046>049-061>064-073>077-083>087-172000-
SOUTH CENTRAL NEBRASKA

CITY           SKY/WX    TMP DP  RH WIND       PRES   REMARKS
GRAND ISLAND   SUNNY     48  26  42 VRB3      30.29F
HASTINGS       SUNNY     47  27  45 E6        30.27F
HEBRON         SUNNY     48  27  44 CALM      30.28F
HOLDREGE       SUNNY     44  29  57 S5        30.27F
KEARNEY *      SUNNY     45  28  53 S7        30.28F
YORK           SUNNY     48  25  40 NE3       30.28F
$$

NEZ011>018-030>034-042>045-172000-
NORTHEAST NEBRASKA

CITY           SKY/WX    TMP DP  RH WIND       PRES   REMARKS
NORFOLK        SUNNY     46  21  37 CALM      30.28F
ALBION         SUNNY     46  21  36 E6        30.28F
BLAIR          SUNNY     47  27  45 W5        30.28F
COLUMBUS *     SUNNY     48  27  43 NE3       30.30F
FREMONT        SUNNY     48  27  43 N3        30.30F
TEKAMAH        SUNNY     49  25  39 MISG      30.30F
$$

NEZ050>053-065>068-078-088>093-172000-
SOUTHEAST NEBRASKA

CITY           SKY/WX    TMP DP  RH WIND       PRES   REMARKS
LINCOLN        SUNNY     52  26  36 N7        30.30F
OMAHA EPPLEY   MOSUNNY   49  26  41 NW9       30.30F
BEATRICE       SUNNY     49  27  42 N6        30.29S
FALLS CITY     SUNNY     49  29  46 VRB5      30.29F
$$

NEZ044-045-051>053-067-172000-
OMAHA AREA

CITY           SKY/WX    TMP DP  RH WIND       PRES   REMARKS
OMAHA EPPLEY   MOSUNNY   49  26  41 NW9       30.30F
BLAIR          SUNNY     47  27  45 W5        30.28F
FREMONT        SUNNY     48  27  43 N3        30.30F
OFFUTT AFB     SUNNY     48  27  43 N7        30.29F
$$



USA.gov is the U.S. government's official web portal to all federal, state and local government web resources and services.